THY355J LTFM-LTAC

Flight info

Callsign THY355J
Flight time 0h 49m
Altitude 27000
Route VICEN T380 ASMAP L333 LATGA
Aircraft A320/M-SDE3FGHIRWY/LB1

Departure

Time 2026-02-18 22:30
Airport İstanbul Airport (LTFM)

Arrival

Time 2026-02-18 23:19
Airport Esenboğa International Airport (LTAC)
Time Latitude Longitude Altitude Speed Heading
2026-02-18 21:51 41.26774 28.73442 334 ft 0 kts 179°
2026-02-18 22:15 41.26787 28.73442 329 ft 3 kts 181°
2026-02-18 22:15 41.26807 28.73443 331 ft 3 kts 184°
2026-02-18 22:15 41.26827 28.73445 333 ft 3 kts 188°
2026-02-18 22:15 41.26847 28.73450 333 ft 3 kts 199°
2026-02-18 22:16 41.26864 28.73461 333 ft 3 kts 231°
2026-02-18 22:16 41.26870 28.73477 329 ft 2 kts 264°
2026-02-18 22:16 41.26872 28.73503 330 ft 3 kts 269°
2026-02-18 22:16 41.26872 28.73525 330 ft 1 kts 269°
2026-02-18 22:17 41.26872 28.73526 330 ft 0 kts 269°
2026-02-18 22:21 41.26872 28.73523 330 ft 1 kts 269°
2026-02-18 22:21 41.26872 28.73495 330 ft 5 kts 269°
2026-02-18 22:21 41.26871 28.73439 329 ft 8 kts 269°
2026-02-18 22:22 41.26870 28.73357 333 ft 10 kts 269°
2026-02-18 22:22 41.26869 28.73250 331 ft 13 kts 269°
2026-02-18 22:22 41.26885 28.73128 331 ft 15 kts 314°
2026-02-18 22:22 41.26966 28.73101 334 ft 2 kts
2026-02-18 22:23 41.26969 28.73101 334 ft 2 kts
2026-02-18 22:23 41.26991 28.73102 330 ft 6 kts 360°
2026-02-18 22:23 41.27071 28.73100 330 ft 16 kts 359°
2026-02-18 22:23 41.27191 28.73097 332 ft 19 kts 359°
2026-02-18 22:24 41.27331 28.73094 332 ft 21 kts 359°
2026-02-18 22:24 41.27488 28.73090 332 ft 24 kts 359°
2026-02-18 22:24 41.27592 28.73030 334 ft 17 kts 286°
2026-02-18 22:24 41.27684 28.72969 332 ft 17 kts 358°
2026-02-18 22:25 41.27962 28.72962 334 ft 22 kts 359°
2026-02-18 22:25 41.28126 28.72961 334 ft 25 kts 359°
2026-02-18 22:25 41.28306 28.72956 332 ft 27 kts 359°
2026-02-18 22:26 41.28500 28.72950 334 ft 29 kts 359°
2026-02-18 22:26 41.28707 28.72945 334 ft 31 kts 359°
2026-02-18 22:26 41.28927 28.72939 333 ft 32 kts 358°
2026-02-18 22:26 41.29158 28.72934 334 ft 34 kts 359°
2026-02-18 22:27 41.29374 28.72930 330 ft 23 kts 359°
2026-02-18 22:27 41.29486 28.72908 333 ft 13 kts 314°
2026-02-18 22:27 41.29492 28.72785 330 ft 15 kts 267°
2026-02-18 22:27 41.29490 28.72638 334 ft 17 kts 270°
2026-02-18 22:28 41.29488 28.72499 334 ft 11 kts 269°
2026-02-18 22:28 41.29445 28.72463 332 ft 8 kts 180°
2026-02-18 22:28 41.29431 28.72464 330 ft 0 kts 179°
2026-02-18 22:29 41.28717 28.72475 330 ft 111 kts 179°
2026-02-18 22:29 41.27792 28.72490 331 ft 153 kts 179°
2026-02-18 22:29 41.26676 28.72522 795 ft 157 kts 182°
2026-02-18 22:30 41.25593 28.72557 1763 ft 155 kts 183°
2026-02-18 22:30 41.24498 28.72604 2261 ft 164 kts 182°
2026-02-18 22:30 41.23297 28.72634 2545 ft 186 kts 183°
2026-02-18 22:30 41.21934 28.72664 2859 ft 206 kts 181°
2026-02-18 22:31 41.20415 28.72741 3161 ft 230 kts 181°
2026-02-18 22:31 41.18784 28.72737 3883 ft 237 kts 193°
2026-02-18 22:31 41.17281 28.71850 4620 ft 244 kts 220°
2026-02-18 22:31 41.16000 28.70327 5430 ft 249 kts 223°
2026-02-18 22:32 41.14710 28.68761 6335 ft 253 kts 223°
2026-02-18 22:32 41.13361 28.67241 7175 ft 257 kts 214°
2026-02-18 22:32 41.11726 28.66239 8003 ft 262 kts 197°
2026-02-18 22:32 41.09896 28.65973 8870 ft 269 kts 179°
2026-02-18 22:33 41.06133 28.66626 10435 ft 279 kts 175°
2026-02-18 22:33 41.04127 28.66978 10664 ft 302 kts 175°
2026-02-18 22:33 41.01994 28.67349 10909 ft 322 kts 175°
2026-02-18 22:34 40.99743 28.67745 11468 ft 330 kts 175°
2026-02-18 22:34 40.97449 28.68151 12090 ft 335 kts 175°
2026-02-18 22:34 40.95121 28.68559 12734 ft 340 kts 175°
2026-02-18 22:34 40.92761 28.68974 13394 ft 344 kts 175°
2026-02-18 22:35 40.90374 28.69395 14018 ft 348 kts 176°
2026-02-18 22:35 40.87950 28.69800 14571 ft 353 kts 176°
2026-02-18 22:35 40.85501 28.70187 15125 ft 357 kts 176°
2026-02-18 22:35 40.83021 28.70570 15674 ft 361 kts 176°
2026-02-18 22:36 40.80517 28.70954 16235 ft 364 kts 176°
2026-02-18 22:36 40.77983 28.71346 16777 ft 368 kts 176°
2026-02-18 22:36 40.75425 28.71744 17332 ft 372 kts 176°
2026-02-18 22:36 40.72841 28.72169 17896 ft 377 kts 174°
2026-02-18 22:37 40.67848 28.74419 18957 ft 390 kts 154°
2026-02-18 22:37 40.65571 28.76416 19488 ft 397 kts 144°
2026-02-18 22:38 40.61851 28.81872 20591 ft 406 kts 129°
2026-02-18 22:38 40.60155 28.84852 21119 ft 407 kts 130°
2026-02-18 22:38 40.58460 28.87853 21614 ft 411 kts 127°
2026-02-18 22:39 40.56043 28.94733 22594 ft 422 kts 107°
2026-02-18 22:39 40.55556 28.98567 23067 ft 429 kts 96°
2026-02-18 22:39 40.55588 29.02509 23521 ft 434 kts 88°
2026-02-18 22:39 40.55784 29.06480 23924 ft 436 kts 89°
2026-02-18 22:40 40.56129 29.14088 24708 ft 439 kts 89°
2026-02-18 22:40 40.56319 29.18048 25102 ft 441 kts 88°
2026-02-18 22:40 40.56609 29.22073 25486 ft 443 kts 86°
2026-02-18 22:41 40.57412 29.30148 26274 ft 447 kts 85°
2026-02-18 22:41 40.57853 29.34201 26660 ft 449 kts 85°
2026-02-18 22:41 40.58285 29.38270 26991 ft 450 kts 85°
2026-02-18 22:42 40.58695 29.42347 27069 ft 448 kts 86°
2026-02-18 22:42 40.59085 29.46403 27081 ft 446 kts 86°
2026-02-18 22:42 40.59461 29.50445 27077 ft 445 kts 86°
2026-02-18 22:42 40.59829 29.54493 27078 ft 445 kts 87°
2026-02-18 22:43 40.60195 29.58534 27078 ft 445 kts 87°
2026-02-18 22:43 40.60563 29.62577 27079 ft 445 kts 87°
2026-02-18 22:43 40.60924 29.66562 27081 ft 445 kts 87°
2026-02-18 22:43 40.61290 29.70604 27084 ft 445 kts 87°
2026-02-18 22:44 40.61654 29.74639 27082 ft 444 kts 87°
2026-02-18 22:44 40.62022 29.78677 27082 ft 444 kts 87°
2026-02-18 22:44 40.62388 29.82709 27081 ft 444 kts 87°
2026-02-18 22:44 40.62754 29.86746 27078 ft 444 kts 87°
2026-02-18 22:45 40.63487 29.94812 27080 ft 444 kts 87°
2026-02-18 22:45 40.63847 29.98844 27077 ft 444 kts 87°
2026-02-18 22:45 40.64203 30.02878 27078 ft 444 kts 88°
2026-02-18 22:46 40.64557 30.06914 27081 ft 444 kts 88°
2026-02-18 22:46 40.64910 30.10956 27083 ft 444 kts 88°
2026-02-18 22:46 40.65263 30.14989 27081 ft 443 kts 88°
2026-02-18 22:46 40.65615 30.19020 27083 ft 443 kts 88°
2026-02-18 22:47 40.65964 30.23058 27080 ft 443 kts 88°
2026-02-18 22:47 40.66306 30.27036 27082 ft 443 kts 88°
2026-02-18 22:47 40.66441 30.31064 27081 ft 438 kts 97°
2026-02-18 22:48 40.65837 30.39001 27075 ft 435 kts 101°
2026-02-18 22:48 40.65506 30.42968 27073 ft 436 kts 101°
2026-02-18 22:48 40.65176 30.46931 27069 ft 435 kts 101°
2026-02-18 22:48 40.64846 30.50889 27062 ft 435 kts 101°
2026-02-18 22:49 40.64185 30.58759 27052 ft 435 kts 101°
2026-02-18 22:49 40.63854 30.62714 27043 ft 435 kts 101°
2026-02-18 22:49 40.63521 30.66675 27042 ft 435 kts 101°
2026-02-18 22:50 40.63155 30.70623 27047 ft 433 kts 105°
2026-02-18 22:50 40.62455 30.74450 27036 ft 428 kts 111°
2026-02-18 22:50 40.61654 30.78226 27044 ft 428 kts 111°
2026-02-18 22:50 40.60855 30.82000 27031 ft 428 kts 111°
2026-02-18 22:51 40.60054 30.85777 27042 ft 428 kts 111°
2026-02-18 22:51 40.59253 30.89549 27043 ft 428 kts 111°
2026-02-18 22:51 40.58451 30.93316 27034 ft 428 kts 111°
2026-02-18 22:51 40.57650 30.97079 27029 ft 427 kts 111°
2026-02-18 22:52 40.56846 31.00843 27034 ft 427 kts 111°
2026-02-18 22:52 40.56057 31.04546 27027 ft 426 kts 111°
2026-02-18 22:52 40.55258 31.08299 27015 ft 426 kts 111°
2026-02-18 22:52 40.54455 31.12050 27028 ft 426 kts 111°
2026-02-18 22:53 40.52835 31.19541 27022 ft 426 kts 112°
2026-02-18 22:53 40.52031 31.23285 27012 ft 426 kts 111°
2026-02-18 22:53 40.51230 31.27023 27011 ft 425 kts 112°
2026-02-18 22:54 40.50426 31.30765 27005 ft 425 kts 112°
2026-02-18 22:54 40.49619 31.34501 27001 ft 425 kts 112°
2026-02-18 22:54 40.48811 31.38233 26997 ft 425 kts 112°
2026-02-18 22:54 40.47998 31.41968 26998 ft 426 kts 112°
2026-02-18 22:55 40.47180 31.45706 26991 ft 425 kts 112°
2026-02-18 22:55 40.46363 31.49439 26988 ft 426 kts 112°
2026-02-18 22:55 40.45556 31.53123 26984 ft 426 kts 112°
2026-02-18 22:55 40.44737 31.56860 26981 ft 426 kts 112°
2026-02-18 22:56 40.43919 31.60594 26976 ft 426 kts 112°
2026-02-18 22:56 40.43100 31.64338 26974 ft 426 kts 112°
2026-02-18 22:56 40.42282 31.68072 26968 ft 426 kts 112°
2026-02-18 22:56 40.41461 31.71808 26964 ft 426 kts 112°
2026-02-18 22:57 40.39813 31.79289 26958 ft 427 kts 112°
2026-02-18 22:57 40.38987 31.83026 26955 ft 427 kts 112°
2026-02-18 22:57 40.38157 31.86772 26952 ft 428 kts 113°
2026-02-18 22:58 40.37324 31.90519 26927 ft 427 kts 113°
2026-02-18 22:58 40.36508 31.94203 26316 ft 426 kts 113°
2026-02-18 22:58 40.35685 31.97914 25779 ft 421 kts 113°
2026-02-18 22:58 40.34868 32.01580 25253 ft 417 kts 113°
2026-02-18 22:59 40.34052 32.05209 24747 ft 413 kts 113°
2026-02-18 22:59 40.33243 32.08802 24264 ft 409 kts 113°
2026-02-18 22:59 40.32439 32.12364 23788 ft 406 kts 113°
2026-02-18 22:59 40.31655 32.15903 23269 ft 404 kts 110°
2026-02-18 23:00 40.31206 32.19554 22792 ft 409 kts 99°
2026-02-18 23:00 40.31286 32.23292 22333 ft 413 kts 88°
2026-02-18 23:00 40.31913 32.26972 21838 ft 416 kts 76°
2026-02-18 23:00 40.33014 32.30483 21357 ft 416 kts 70°
2026-02-18 23:01 40.35294 32.37316 20387 ft 406 kts 74°
2026-02-18 23:01 40.36009 32.40838 19911 ft 395 kts 87°
2026-02-18 23:01 40.36145 32.44380 19432 ft 384 kts 100°
2026-02-18 23:02 40.35757 32.47778 18963 ft 372 kts 111°
2026-02-18 23:02 40.34904 32.50932 18488 ft 362 kts 122°
2026-02-18 23:02 40.33656 32.53741 17991 ft 353 kts 131°
2026-02-18 23:02 40.32228 32.56327 17508 ft 348 kts 132°
2026-02-18 23:03 40.30817 32.58889 17066 ft 344 kts 132°
2026-02-18 23:03 40.29420 32.61428 16919 ft 345 kts 132°
2026-02-18 23:03 40.28027 32.63956 16949 ft 348 kts 132°
2026-02-18 23:03 40.26611 32.66528 16942 ft 349 kts 132°
2026-02-18 23:04 40.25189 32.69106 16933 ft 349 kts 132°
2026-02-18 23:04 40.23784 32.71655 16700 ft 336 kts 132°
2026-02-18 23:04 40.22471 32.74049 16564 ft 313 kts 132°
2026-02-18 23:04 40.21246 32.76284 16442 ft 293 kts 133°
2026-02-18 23:05 40.19410 32.80836 15787 ft 298 kts 101°
2026-02-18 23:05 40.19744 32.83539 15559 ft 310 kts 69°
2026-02-18 23:05 40.21095 32.85734 15331 ft 314 kts 40°
2026-02-18 23:06 40.22832 32.87458 15109 ft 312 kts 38°
2026-02-18 23:06 40.25930 32.90367 14720 ft 311 kts 37°
2026-02-18 23:06 40.27709 32.92023 14499 ft 309 kts 37°
2026-02-18 23:07 40.29453 32.93660 14267 ft 308 kts 37°
2026-02-18 23:07 40.31186 32.95298 14051 ft 306 kts 38°
2026-02-18 23:07 40.32880 32.96911 13813 ft 305 kts 38°
2026-02-18 23:07 40.34589 32.98543 13550 ft 303 kts 38°
2026-02-18 23:08 40.36288 33.00167 13280 ft 302 kts 38°
2026-02-18 23:08 40.37977 33.01788 13007 ft 300 kts 38°
2026-02-18 23:08 40.39656 33.03400 12742 ft 298 kts 38°
2026-02-18 23:08 40.41323 33.04996 12469 ft 296 kts 38°
2026-02-18 23:09 40.43734 33.08988 11950 ft 274 kts 84°
2026-02-18 23:09 40.44191 33.11409 11693 ft 276 kts 75°
2026-02-18 23:09 40.44942 33.13729 11379 ft 274 kts 71°
2026-02-18 23:10 40.45725 33.15977 11079 ft 267 kts 72°
2026-02-18 23:10 40.46161 33.18259 10781 ft 252 kts 96°
2026-02-18 23:10 40.45914 33.20466 10482 ft 239 kts 120°
2026-02-18 23:10 40.45107 33.22277 10187 ft 225 kts 141°
2026-02-18 23:11 40.43923 33.23524 9892 ft 215 kts 159°
2026-02-18 23:11 40.42555 33.24144 9586 ft 209 kts 176°
2026-02-18 23:11 40.41120 33.24146 9309 ft 204 kts 192°
2026-02-18 23:11 40.39785 33.23564 9051 ft 203 kts 208°
2026-02-18 23:12 40.38605 33.22560 8784 ft 201 kts 213°
2026-02-18 23:12 40.37452 33.21537 8530 ft 199 kts 212°
2026-02-18 23:12 40.36304 33.20522 8273 ft 199 kts 212°
2026-02-18 23:12 40.35165 33.19515 8015 ft 197 kts 212°
2026-02-18 23:13 40.32927 33.17537 7517 ft 192 kts 211°
2026-02-18 23:13 40.31820 33.16559 7264 ft 190 kts 211°
2026-02-18 23:13 40.30742 33.15607 7007 ft 185 kts 211°
2026-02-18 23:14 40.29709 33.14692 6789 ft 172 kts 210°
2026-02-18 23:14 40.28759 33.13850 6533 ft 157 kts 209°
2026-02-18 23:14 40.27861 33.13056 6298 ft 154 kts 209°
2026-02-18 23:14 40.26995 33.12293 6042 ft 150 kts 209°
2026-02-18 23:15 40.26150 33.11549 5806 ft 143 kts 209°
2026-02-18 23:15 40.25320 33.10820 5545 ft 144 kts 209°
2026-02-18 23:15 40.24495 33.10097 5282 ft 143 kts 209°
2026-02-18 23:15 40.23674 33.09376 4956 ft 142 kts 210°
2026-02-18 23:16 40.22851 33.08655 4598 ft 143 kts 213°
2026-02-18 23:16 40.22024 33.07929 4364 ft 143 kts 216°
2026-02-18 23:16 40.21197 33.07217 4357 ft 142 kts 214°
2026-02-18 23:16 40.20373 33.06505 4362 ft 142 kts 216°
2026-02-18 23:17 40.18767 33.05023 4270 ft 142 kts 219°
2026-02-18 23:17 40.17967 33.04267 4076 ft 142 kts 221°
2026-02-18 23:17 40.17175 33.03515 3893 ft 140 kts 221°
2026-02-18 23:18 40.16392 33.02770 3708 ft 139 kts 221°
2026-02-18 23:18 40.15600 33.02041 3587 ft 139 kts 221°
2026-02-18 23:18 40.14823 33.01294 3391 ft 138 kts 222°
2026-02-18 23:18 40.14058 33.00556 3201 ft 136 kts 224°
2026-02-18 23:19 40.13353 32.99843 3134 ft 109 kts 217°
2026-02-18 23:19 40.12874 32.99401 3137 ft 60 kts 213°
2026-02-18 23:19 40.12666 32.99212 3135 ft 23 kts 217°
2026-02-18 23:19 40.12534 32.99086 3135 ft 24 kts 217°
2026-02-18 23:20 40.12375 32.98962 3134 ft 28 kts 203°
2026-02-18 23:20 40.12187 32.98913 3136 ft 28 kts 186°
2026-02-18 23:20 40.12009 32.98883 3135 ft 23 kts 189°
2026-02-18 23:20 40.11890 32.98899 3135 ft 16 kts 133°
2026-02-18 23:21 40.11754 32.99114 3134 ft 14 kts 133°
2026-02-18 23:21 40.11715 32.99157 3134 ft 3 kts 159°
2026-02-18 23:21 40.11687 32.99149 3134 ft 5 kts 197°
2026-02-18 23:22 40.11652 32.99165 3134 ft 6 kts 147°
2026-02-18 23:22 40.11634 32.99178 3134 ft 0 kts 150°